Weather in Kuzedeyevo

Russia / Kemerovo Oblast     53˚20′13″N   87˚11′30″E
temp.,
°C
wind,
m/s
gust,
m/s
humid.,
%
clouds,
%
prec.,
mm/h
press.,
hPa
HPBL,
m
18 january, mon
mon1801:00−9˚ssw389598 0.6 1022299
04:00−11˚s279799 0.1 1020170
07:00−12˚se229184 0.1 101823
10:00−10˚sse228591 0.0 101538
13:00−5˚ssw387896 0.0 1012327
16:00−5˚sw41275100 0.0 1010767
19:00−6˚wsw41095100 1.4 1013857
22:00−8˚wsw3994100 1.2 1015989
19 january, tue
tue1901:00−12˚wsw269699 1.4 1018176
04:00−16˚sw229749 0.0 102128
07:00−19˚sw229858 0.0 102321
10:00−20˚ssw129832 0.0 102520
13:00−14˚sw238745 0.0 1024300
16:00−13˚sw138934 0.0 1023309
19:00−18˚ssw119567 0.0 102420
22:00−18˚ssw1192100 0.0 102420
20 january, wed
wed2001:00−19˚sw1191100 0.0 102420
04:00−20˚ssw1191100 0.0 102420
07:00−20˚n119184 0.0 102620
10:00−20˚ne1191100 0.0 102820
13:00−15˚ne128295 0.0 1026220
16:00−13˚nne128878 0.0 1025133
19:00−16˚ne229281 0.0 102523
22:00−15˚ne1288100 0.0 102426
21 january, thu
thu2101:00−13˚ene1190100 0.1 102328
04:00−11˚ene1196100 0.4 102153
07:00−8˚ese1197100 1.9 101961
10:00−5˚s2997100 2.0 1018386
13:00−1˚sw51195100 3.5 1016926
16:00−2˚wsw51092100 0.7 10161035
19:00−6˚ssw2396100 0.8 101764
22:00−8˚se1297100 0.0 101421
22 january, fri
fri2201:00−7˚e1195100 0.0 100921
04:00−6˚ese1295100 0.1 100457
07:00−4˚ssw3996100 2.6 1003418
10:00−6˚w5995100 2.3 1005691
13:00−9˚wsw4892100 3.2 1009635
16:00−11˚wsw5989100 0.3 1014912
19:00−16˚sw4993100 0.4 1019623
22:00−19˚sw41095100 0.0 1023574